Location: Eastview
(35.0756°N, 88.5453°W)
Time: 10:36:19
(UTC+00:00)

ATLAS 5 CENTAUR R/B - Pass Details

Date: 22 November 2019
Orbit: 266 x 13000 km, 20.1° (Epoch: 05 December)

Event Time Altitude Azimuth Distance (km) Brightness Sun altitude
Rises 23:38:37 0° 221° (SW) 2,304 5.1 -11.1°
Reaches altitude 10° 23:40:46 10° 193° (SSW) 1,872 3.9 -11.5°
Maximum altitude 23:43:22 16° 154° (SSE) 2,106 3.7 -12.0°
Drops below altitude 10° 23:47:56 10° 120° (ESE) 3,668 4.6 -12.9°
Enters shadow 23:51:32 - 110° (ESE) 5,089 5.2 -13.7°
